1534629600.4,5711,21.25,74788.0,4.01,-16.89,-17.25,0,*4D
1534629601.64,5712,21.25,74788.5,3.97,-16.93,-17.25,0,*4D
1534629602.86,5713,21.25,74788.0,3.99,-16.79,-17.25,0,*46
1534629604.09,5714,21.25,74786.0,3.99,-16.79,-17.21,0,*45
1534629605.36,5715,21.25,74786.0,3.97,-16.65,-17.11,0,*44
1534629606.59,5716,21.25,74786.3,3.99,-16.59,-17.11,0,*46
1534629607.84,5717,21.25,74790.3,3.97,-16.83,-17.25,0,*49
1534629609.04,5718,21.25,74786.5,3.99,-16.89,-17.35,0,*43
1534629610.27,5719,21.25,74788.8,3.99,-16.75,-17.25,0,*40
1534629611.5,5720,21.25,74788.3,3.99,-17.03,-17.35,0,*4B
1534629612.74,5721,21.25,74786.3,3.97,-16.93,-17.25,0,*4D
1534629613.97,5722,21.25,74786.5,3.99,-16.75,-17.21,0,*4C
1534629615.21,5723,21.25,74786.3,4.01,-16.89,-17.25,0,*4C
1534629616.46,5724,21.25,74786.3,3.97,-16.93,-17.41,0,*4A
1534629617.68,5725,21.25,74788.5,3.99,-16.89,-17.25,0,*4C
1534629618.93,5726,21.25,74784.0,3.99,-16.65,-17.11,0,*4A
1534629620.18,5727,21.25,74788.0,3.99,-16.65,-17.11,0,*4B
1534629621.39,5728,21.25,74788.0,3.99,-16.75,-17.35,0,*43
1534629622.64,5729,21.25,74786.8,4.01,-16.75,-17.21,0,*41
1534629623.89,5730,21.25,74788.5,3.97,-16.97,-17.41,0,*4B
1534629625.12,5731,21.25,74784.5,3.99,-16.75,-17.21,0,*4E
1534629626.39,5732,21.25,74784.8,3.97,-16.65,-17.03,0,*42
1534629627.64,5733,21.25,74784.0,3.97,-16.79,-17.25,0,*4A
1534629628.86,5734,21.25,74786.8,3.97,-16.83,-17.31,0,*4D
1534629630.08,5735,21.25,74786.3,3.97,-16.83,-17.31,0,*4C
1534629631.34,5736,21.25,74786.8,3.99,-16.65,-17.11,0,*4B
1534629632.55,5737,21.25,74788.5,3.97,-16.93,-17.31,0,*4F
1534629633.77,5738,21.25,74786.0,3.99,-16.93,-17.41,0,*49
1534629635.02,5739,21.25,74784.5,3.97,-16.83,-17.41,0,*47
1534629636.24,5740,21.25,74786.5,3.99,-16.89,-17.25,0,*4F
1534629637.5,5741,21.25,74786.0,3.99,-16.65,-17.11,0,*4B
1534629638.72,5742,21.25,74784.0,3.99,-16.79,-17.21,0,*46
1534629639.92,5743,21.25,74784.3,3.99,-16.93,-17.35,0,*46
1534629641.2,5744,21.25,74786.8,3.97,-17.07,-17.45,0,*44
1534629642.45,5745,21.19,74784.0,3.97,-16.79,-17.25,0,*4B
1534629643.7,5746,21.25,74786.0,3.99,-16.65,-17.21,0,*4F
1534629644.93,5747,21.25,74786.0,3.99,-16.59,-17.11,0,*42
1534629646.2,5748,21.25,74784.0,3.97,-16.69,-17.17,0,*46
1534629647.43,5749,21.25,74786.0,3.99,-16.59,-17.11,0,*4C
1534629648.63,5750,21.25,74786.3,3.99,-16.79,-17.35,0,*40
1534629649.85,5751,21.25,74786.0,3.99,-16.89,-17.25,0,*4F
1534629651.06,5752,21.25,74786.8,3.99,-16.89,-17.35,0,*4D
1534629652.26,5753,21.25,74784.5,3.99,-16.79,-17.35,0,*43
1534629653.46,5754,21.25,74786.5,3.99,-16.93,-17.31,0,*44
1534629654.69,5755,21.25,74782.0,3.99,-16.59,-17.07,0,*46
1534629655.9,5756,21.25,74782.8,3.99,-16.79,-17.35,0,*46
1534629657.14,5757,21.25,74784.0,3.97,-16.97,-17.41,0,*4A
1534629658.36,5758,21.25,74786.8,3.97,-16.97,-17.31,0,*42
1534629659.59,5759,21.25,74784.5,3.97,-16.55,-16.93,0,*44
1534629660.78,5760,21.25,74786.5,3.99,-16.37,-16.93,0,*44
1534629662.01,5761,21.25,74782.8,3.99,-16.59,-17.07,0,*41
1534629663.21,5762,21.25,74784.0,3.99,-16.93,-17.35,0,*45
1534629664.46,5763,21.19,74782.0,4.01,-16.79,-17.25,0,*47
1534629665.66,5764,21.25,74784.8,3.99,-16.93,-17.35,0,*43
1534629666.86,5765,21.19,74782.0,3.99,-16.93,-17.35,0,*42
1534629668.06,5766,21.25,74786.3,3.99,-16.93,-17.49,0,*4A
1534629669.31,5767,21.25,74784.5,3.97,-16.97,-17.45,0,*4D
1534629670.56,5768,21.25,74784.5,3.99,-16.65,-17.21,0,*43
1534629671.81,5769,21.19,74782.0,3.97,-16.83,-17.17,0,*41
1534629673.06,5770,21.25,74784.0,3.97,-16.83,-17.41,0,*4A
1534629674.3,5771,21.25,74786.8,3.97,-16.97,-17.41,0,*4E
1534629675.55,5772,21.25,74784.0,3.97,-16.79,-17.17,0,*4E
1534629676.79,5773,21.25,74786.3,3.99,-16.59,-17.07,0,*42
1534629678.04,5774,21.25,74786.8,3.99,-16.65,-17.21,0,*4E
1534629679.26,5775,21.25,74782.0,3.99,-16.79,-17.25,0,*46
1534629680.46,5776,21.25,74784.0,3.99,-16.83,-17.31,0,*45
1534629681.65,5777,21.25,74784.3,3.99,-16.93,-17.31,0,*45
1534629682.87,5778,21.25,74784.0,3.99,-16.93,-17.41,0,*4D
1534629684.09,5779,21.25,74784.5,3.97,-16.83,-17.31,0,*44
1534629685.31,5780,21.25,74786.3,3.99,-16.93,-17.41,0,*4A
1534629686.56,5781,21.25,74786.8,3.97,-16.97,-17.45,0,*45
1534629687.78,5782,21.25,74788.5,3.97,-16.83,-17.31,0,*40
1534629689.03,5783,21.25,74784.0,3.97,-16.93,-17.41,0,*47
1534629690.23,5784,21.19,74780.8,3.99,-16.93,-17.35,0,*4D
1534629691.48,5785,21.19,74780.5,3.97,-16.79,-17.17,0,*46
1534629692.7,5786,21.19,74784.0,3.97,-16.83,-17.31,0,*44
1534629693.94,5787,21.25,74784.0,3.97,-16.79,-17.17,0,*44
1534629695.14,5788,21.25,74786.0,3.99,-16.37,-16.93,0,*42
1534629696.37,5789,21.25,74784.8,3.99,-16.23,-16.75,0,*4E
1534629697.6,5790,21.25,74784.5,3.99,-16.59,-17.07,0,*4F
1534629698.82,5791,21.19,74782.0,3.99,-16.79,-17.25,0,*4C
1534629700.07,5792,21.25,74784.5,3.97,-16.79,-17.17,0,*40
1534629701.34,5793,21.25,74786.5,3.97,-16.69,-17.25,0,*41
1534629702.6,5794,21.19,74784.3,3.99,-16.65,-17.21,0,*40
1534629703.8,5795,21.25,74784.3,3.99,-16.89,-17.35,0,*46
1534629705.02,5796,21.19,74780.5,3.97,-16.83,-17.31,0,*45
1534629706.25,5797,21.19,74782.3,3.99,-16.59,-17.11,0,*4F
1534629707.47,5798,21.25,74788.3,3.99,-16.89,-17.21,0,*4E
1534629708.72,5799,21.19,74780.5,3.97,-16.97,-17.41,0,*48
1534629709.94,5800,21.25,74784.5,3.99,-16.93,-17.41,0,*4D
1534629711.19,5801,21.25,74784.0,3.99,-17.03,-17.41,0,*44
1534629712.41,5802,21.19,74780.5,3.99,-16.93,-17.41,0,*4F
1534629713.69,5803,21.25,74784.0,3.97,-17.07,-17.45,0,*48
1534629714.93,5804,21.25,74784.8,3.97,-16.93,-17.41,0,*47
1534629716.18,5805,21.25,74786.5,3.97,-16.79,-17.17,0,*41
1534629717.43,5806,21.19,74782.3,3.97,-16.93,-17.41,0,*45
1534629718.68,5807,21.25,74784.8,3.97,-16.65,-16.97,0,*47
1534629719.9,5808,21.25,74786.8,3.97,-16.83,-17.31,0,*4D
1534629721.13,5809,21.25,74786.8,3.99,-16.75,-17.21,0,*4A
1534629722.4,5810,21.19,74780.0,3.97,-16.69,-17.25,0,*45
1534629723.62,5811,21.19,74782.5,3.97,-16.83,-17.31,0,*45
1534629724.84,5812,21.19,74782.5,3.99,-16.89,-17.25,0,*47
1534629726.05,5813,21.19,74782.0,3.99,-16.79,-17.35,0,*48
1534629727.29,5814,21.19,74782.0,3.97,-16.93,-17.45,0,*42
1534629728.57,5815,21.25,74784.5,3.97,-16.65,-17.07,0,*4C
1534629729.8,5816,21.19,74780.5,3.99,-16.59,-17.03,0,*4A
1534629731.01,5817,21.25,74782.3,3.99,-16.79,-17.35,0,*4C
1534629732.23,5818,21.25,74784.0,3.99,-16.93,-17.41,0,*44
1534629733.48,5819,21.19,74782.8,3.99,-17.03,-17.41,0,*4D
1534629734.76,5820,21.19,74784.3,3.97,-17.07,-17.41,0,*4D
1534629735.98,5821,21.19,74782.8,3.99,-16.89,-17.25,0,*47
1534629737.19,5822,21.19,74782.3,3.97,-16.93,-17.31,0,*44
1534629738.42,5823,21.25,74784.0,3.99,-16.79,-17.21,0,*4E
1534629739.67,5824,21.25,74784.8,3.97,-16.79,-17.17,0,*42
1534629740.89,5825,21.19,74782.8,3.99,-16.75,-17.11,0,*47
1534629742.09,5826,21.25,74784.8,3.99,-16.45,-16.89,0,*47
1534629743.32,5827,21.19,74782.5,3.99,-16.75,-17.07,0,*42
1534629744.55,5828,21.19,74784.0,3.99,-16.75,-17.21,0,*49
1534629745.76,5829,21.25,74784.8,3.99,-16.89,-17.35,0,*4E
1534629746.98,5830,21.19,74782.0,3.99,-16.79,-17.25,0,*48
1534629748.22,5831,21.25,74784.3,3.97,-16.93,-17.41,0,*41
1534629749.43,5832,21.19,74782.8,3.99,-16.93,-17.35,0,*4F
1534629750.63,5833,21.25,74786.3,3.99,-16.93,-17.35,0,*4E
1534629751.83,5834,21.19,74782.8,3.99,-16.89,-17.35,0,*42
1534629753.03,5835,21.25,74786.0,3.99,-16.93,-17.35,0,*48
1534629754.26,5836,21.19,74786.3,4.01,-16.79,-17.35,0,*49
1534629755.52,5837,21.25,74786.8,3.99,-16.65,-17.11,0,*45
1534629756.76,5838,21.19,74782.8,3.97,-16.83,-17.25,0,*4B
1534629758.01,5839,21.25,74786.5,3.97,-16.83,-17.41,0,*48
1534629759.22,5840,21.19,74786.3,3.99,-16.93,-17.35,0,*4A
1534629760.44,5841,21.25,74786.0,3.99,-16.93,-17.41,0,*48
1534629761.66,5842,21.25,74784.5,3.99,-16.59,-17.11,0,*48
1534629762.89,5843,21.19,74782.8,3.99,-16.75,-17.11,0,*47
1534629764.14,5844,21.25,74784.0,3.97,-16.97,-17.41,0,*47
1534629765.39,5845,21.25,74786.3,3.97,-16.51,-16.97,0,*46
1534629766.61,5846,21.19,74784.0,3.99,-16.59,-17.11,0,*4C
1534629767.84,5847,21.25,74784.3,3.99,-16.89,-17.41,0,*45
1534629769.07,5848,21.25,74786.0,3.99,-16.75,-17.11,0,*4C
1534629770.32,5849,21.19,74780.3,3.99,-16.65,-17.11,0,*4C
1534629771.55,5850,21.25,74784.0,3.99,-16.75,-17.11,0,*45
1534629772.8,5851,21.19,74784.0,3.99,-16.65,-17.03,0,*46
1534629774.02,5852,21.25,74786.0,3.99,-16.79,-17.21,0,*48
1534629775.23,5853,21.25,74784.8,3.99,-16.93,-17.35,0,*48
1534629776.47,5854,21.19,74780.5,3.97,-16.97,-17.41,0,*46
1534629777.72,5855,21.19,74780.8,3.97,-16.97,-17.55,0,*42
1534629778.97,5856,21.19,74784.0,3.99,-17.03,-17.41,0,*46
1534629780.18,5857,21.19,74780.0,3.99,-16.89,-17.35,0,*47
1534629781.42,5858,21.19,74782.3,3.97,-16.97,-17.41,0,*4A
1534629782.65,5859,21.19,74782.3,3.99,-16.75,-17.11,0,*4C
1534629783.87,5860,21.25,74784.5,3.99,-16.93,-17.25,0,*49
1534629785.09,5861,21.19,74782.5,3.97,-16.93,-17.31,0,*43
1534629786.31,5862,21.19,74784.5,3.99,-16.97,-17.41,0,*4D
1534629787.56,5863,21.19,74780.8,3.97,-16.97,-17.55,0,*47
1534629788.76,5864,21.25,74784.3,3.99,-16.93,-17.35,0,*4C
1534629790.01,5865,21.19,74784.0,3.97,-16.83,-17.41,0,*41
1534629791.23,5866,21.25,74784.8,3.99,-16.93,-17.41,0,*4D
1534629792.48,5867,21.25,74784.8,3.97,-16.93,-17.45,0,*46
1534629793.72,5868,21.25,74786.8,3.97,-16.97,-17.55,0,*4C
1534629794.97,5869,21.19,74786.3,3.97,-16.97,-17.55,0,*4D
1534629796.22,5870,21.19,74782.0,3.97,-16.97,-17.41,0,*40
1534629797.46,5871,21.25,74784.0,3.97,-16.93,-17.41,0,*45
1534629798.71,5872,21.19,74784.5,3.97,-16.93,-17.41,0,*46
1534629799.93,5873,21.19,74784.8,3.99,-16.89,-17.25,0,*40
1534629801.18,5874,21.19,74786.3,3.97,-16.97,-17.41,0,*44
1534629802.43,5875,21.19,74784.8,3.97,-16.97,-17.45,0,*41
1534629803.67,5876,21.25,74788.8,3.97,-16.93,-17.45,0,*46
1534629804.9,5877,21.25,74784.5,3.99,-16.75,-17.21,0,*43
1534629806.15,5878,21.25,74786.3,3.97,-16.83,-17.41,0,*4D
1534629807.37,5879,21.19,74780.3,3.99,-16.93,-17.41,0,*43
1534629808.62,5880,21.25,74784.8,3.97,-16.97,-17.45,0,*4B
1534629809.87,5881,21.25,74784.0,3.99,-16.51,-17.03,0,*4C
1534629811.14,5882,21.25,74786.0,3.97,-16.69,-17.17,0,*4F
1534629812.38,5883,21.25,74784.8,3.97,-16.93,-17.41,0,*48
1534629813.63,5884,21.19,74784.3,3.97,-16.93,-17.45,0,*4B
1534629814.87,5885,21.25,74786.0,3.97,-16.93,-17.41,0,*4E
1534629816.09,5886,21.19,74782.3,3.97,-16.93,-17.31,0,*4A
1534629817.34,5887,21.19,74780.5,3.97,-16.97,-17.41,0,*48
1534629818.59,5888,21.25,74786.5,3.97,-16.97,-17.45,0,*43
1534629819.83,5889,21.19,74786.0,3.97,-16.93,-17.45,0,*46
1534629821.05,5890,21.19,74784.8,3.97,-16.93,-17.31,0,*4D
1534629822.27,5891,21.25,74786.8,3.97,-16.83,-17.31,0,*4D
1534629823.54,5892,21.25,74788.0,3.97,-16.69,-17.17,0,*4E
1534629824.81,5893,21.19,74784.3,3.97,-16.69,-17.25,0,*4E
1534629826.03,5894,21.19,74786.3,3.97,-16.83,-17.31,0,*48
1534629827.31,5895,21.19,74786.3,3.97,-17.07,-17.45,0,*47
1534629828.58,5896,21.25,74786.5,3.97,-17.07,-17.45,0,*44
1534629829.86,5897,21.19,74782.8,3.97,-17.07,-17.45,0,*45
1534629831.1,5898,21.19,74784.3,3.95,-16.97,-17.45,0,*40
1534629832.34,5899,21.19,74780.5,3.97,-16.79,-17.25,0,*45
1534629833.62,5900,21.19,74786.8,3.97,-16.65,-17.11,0,*4E
1534629834.85,5901,21.19,74786.8,3.99,-16.75,-17.21,0,*43
1534629836.13,5902,21.19,74784.8,3.97,-16.65,-17.07,0,*4B
1534629837.39,5903,21.19,74782.8,3.99,-16.51,-17.07,0,*43
1534629838.64,5904,21.19,74786.5,3.97,-16.79,-17.17,0,*41
1534629839.88,5905,21.19,74786.0,3.97,-16.93,-17.41,0,*47
1534629841.13,5906,21.19,74784.0,3.97,-16.97,-17.41,0,*40
1534629842.4,5907,21.19,74786.0,3.97,-17.07,-17.45,0,*4D
1534629843.65,5908,21.25,74788.0,3.97,-16.97,-17.45,0,*4A
1534629844.87,5909,21.19,74786.3,3.99,-16.93,-17.45,0,*41
1534629846.12,5910,21.19,74784.8,3.97,-16.83,-17.41,0,*42
1534629847.35,5911,21.19,74784.8,3.99,-16.79,-17.25,0,*4A
1534629848.59,5912,21.19,74786.3,3.97,-16.79,-17.25,0,*47
1534629849.84,5913,21.19,74782.3,3.97,-16.93,-17.41,0,*40
1534629851.09,5914,21.19,74786.0,3.97,-16.97,-17.45,0,*47
1534629852.34,5915,21.19,74784.3,3.97,-16.97,-17.45,0,*46
1534629853.55,5916,21.19,74784.0,3.97,-16.93,-17.31,0,*42
1534629854.77,5917,21.19,74782.0,3.97,-16.83,-17.31,0,*42
1534629855.99,5918,21.19,74782.5,3.97,-16.93,-17.31,0,*4C
1534629857.23,5919,21.19,74782.8,3.97,-16.93,-17.41,0,*4A
1534629858.48,5920,21.19,74786.5,3.97,-16.93,-17.41,0,*40
1534629859.72,5921,21.19,74784.8,3.97,-16.97,-17.41,0,*45
1534629860.95,5922,21.19,74784.3,3.97,-16.79,-17.31,0,*41
1534629862.19,5923,21.19,74784.0,3.97,-16.97,-17.41,0,*47
1534629863.4,5924,21.19,74786.3,3.99,-16.89,-17.35,0,*42
1534629864.64,5925,21.19,74784.0,3.95,-16.23,-16.83,0,*43
1534629865.89,5926,21.19,74782.8,3.97,-16.79,-17.25,0,*40
1534629867.11,5927,21.19,74784.0,3.97,-16.79,-17.31,0,*44
1534629868.33,5928,21.25,74786.5,3.97,-16.83,-17.31,0,*4E
1534629869.57,5929,21.19,74784.8,3.97,-16.83,-17.25,0,*4A
1534629870.82,5930,21.25,74786.5,3.97,-16.51,-16.97,0,*45
1534629872.04,5931,21.19,74784.3,3.97,-16.83,-17.31,0,*46
1534629873.29,5932,21.19,74784.3,3.97,-16.97,-17.45,0,*43
1534629874.57,5933,21.19,74786.5,3.97,-17.07,-17.41,0,*4E
1534629875.77,5934,21.19,74784.3,3.99,-16.93,-17.35,0,*48
1534629877.04,5935,21.25,74788.8,3.97,-16.65,-17.11,0,*48
1534629878.26,5936,21.19,74786.8,3.99,-16.51,-16.93,0,*49
1534629879.49,5937,21.19,74784.3,3.99,-16.75,-17.25,0,*42
1534629880.74,5938,21.19,74788.0,3.97,-16.97,-17.41,0,*4D
1534629881.94,5939,21.19,74784.8,3.99,-16.89,-17.35,0,*4E
1534629883.19,5940,21.19,74788.0,3.97,-16.79,-17.25,0,*40
1534629884.44,5941,21.19,74786.8,3.99,-16.51,-17.07,0,*45
1534629885.69,5942,21.19,74784.8,3.97,-16.51,-16.97,0,*40
1534629886.91,5943,21.19,74790.8,3.97,-16.83,-17.31,0,*43
1534629888.13,5944,21.19,74786.5,3.99,-16.93,-17.41,0,*4C
1534629889.41,5945,21.19,74784.3,3.97,-17.07,-17.45,0,*4B
1534629890.66,5946,21.19,74784.0,3.99,-17.03,-17.55,0,*43
1534629891.93,5947,21.19,74784.8,3.97,-17.07,-17.45,0,*49
1534629893.15,5948,21.19,74784.0,3.99,-16.79,-17.25,0,*46
1534629894.38,5949,21.19,74782.8,3.99,-16.45,-17.03,0,*4C
1534629895.65,5950,21.19,74784.3,3.97,-16.69,-17.17,0,*41
1534629896.85,5951,21.19,74784.8,3.99,-16.93,-17.35,0,*4B
1534629898.07,5952,21.19,74784.3,3.99,-16.93,-17.41,0,*4B
1534629899.3,5953,21.19,74784.5,3.99,-16.89,-17.41,0,*41
1534629900.55,5954,21.19,74786.3,3.97,-16.97,-17.55,0,*42
1534629901.77,5955,21.19,74790.0,3.99,-16.89,-17.25,0,*45
1534629902.97,5956,21.19,74786.5,3.99,-16.79,-17.35,0,*48
1534629904.17,5957,21.19,74786.0,3.99,-16.93,-17.49,0,*46
1534629905.39,5958,21.19,74788.0,3.99,-16.59,-17.11,0,*42
1534629906.62,5959,21.19,74786.5,3.99,-16.59,-17.03,0,*40
1534629907.82,5960,21.19,74786.3,3.99,-16.45,-16.93,0,*4F
1534629909.04,5961,21.19,74786.8,3.99,-16.79,-17.25,0,*4D
1534629910.29,5962,21.19,74784.5,3.97,-16.97,-17.45,0,*46
1534629911.51,5963,21.19,74784.5,3.99,-16.93,-17.41,0,*49
1534629912.73,5964,21.25,74788.0,3.99,-16.93,-17.41,0,*4E
1534629913.98,5965,21.19,74786.0,3.99,-17.03,-17.41,0,*47
1534629915.2,5966,21.19,74790.0,3.99,-16.51,-16.93,0,*4C
1534629916.43,5967,21.19,74786.5,3.99,-16.59,-17.07,0,*49
1534629917.63,5968,21.19,74788.8,3.99,-16.79,-17.31,0,*41
1534629918.86,5969,21.19,74786.8,3.99,-16.79,-17.41,0,*47
1534629920.11,5970,21.19,74786.0,3.99,-16.65,-17.21,0,*44
1534629921.31,5971,21.19,74786.8,3.99,-16.79,-17.35,0,*4D
1534629922.56,5972,21.19,74786.0,3.97,-16.83,-17.25,0,*44
1534629923.79,5973,21.19,74788.3,3.99,-16.75,-17.21,0,*46
1534629925.04,5974,21.19,74786.0,3.99,-16.65,-17.11,0,*43
1534629926.31,5975,21.25,74788.5,3.97,-16.69,-17.17,0,*46
1534629927.52,5976,21.19,74790.0,3.99,-16.89,-17.35,0,*45
1534629928.74,5977,21.19,74786.0,3.99,-16.75,-17.21,0,*42
1534629929.99,5978,21.19,74784.3,3.97,-16.79,-17.25,0,*4B
1534629931.19,5979,21.19,74786.0,3.99,-16.37,-16.89,0,*49
1534629932.42,5980,21.19,74788.0,3.99,-16.59,-17.07,0,*40
1534629933.67,5981,21.19,74788.8,3.99,-16.65,-17.11,0,*49
1534629934.9,5982,21.19,74786.5,4.01,-16.89,-17.35,0,*48
1534629936.12,5983,21.19,74788.0,3.99,-16.93,-17.41,0,*47
1534629937.35,5984,21.19,74786.8,3.99,-16.93,-17.41,0,*40
1534629938.54,5985,21.19,74788.0,3.99,-16.89,-17.31,0,*4D
1534629939.77,5986,21.25,74790.0,4.01,-16.89,-17.35,0,*4C
1534629941.01,5987,21.19,74788.8,4.01,-16.89,-17.25,0,*4C
1534629942.26,5988,21.19,74786.8,4.01,-16.89,-17.25,0,*43
1534629943.51,5989,21.19,74786.8,3.97,-16.97,-17.41,0,*47
1534629944.71,5990,21.19,74790.8,3.99,-16.93,-17.35,0,*46
1534629945.91,5991,21.19,74786.8,3.99,-16.93,-17.35,0,*47
1534629947.11,5992,21.19,74786.5,3.99,-16.93,-17.35,0,*44
1534629948.3,5993,21.19,74790.0,3.99,-16.93,-17.31,0,*41
1534629949.52,5994,21.19,74786.0,3.99,-16.79,-17.25,0,*47
1534629950.75,5995,21.19,74786.3,3.99,-16.79,-17.25,0,*46
1534629951.97,5996,21.19,74786.0,3.99,-16.75,-17.21,0,*4D
1534629953.2,5997,21.19,74786.8,3.99,-16.75,-17.21,0,*4C
1534629954.42,5998,21.19,74790.8,3.99,-16.75,-17.25,0,*47
1534629955.65,5999,21.19,74790.0,3.99,-16.75,-17.25,0,*46
1534629956.9,6000,21.19,74784.8,3.99,-16.65,-17.11,0,*4A
1534629958.12,6001,21.19,74788.5,3.99,-16.79,-17.25,0,*41
1534629959.33,6002,21.19,74790.5,3.99,-16.89,-17.35,0,*4C
1534629960.52,6003,21.25,74792.3,3.99,-16.93,-17.49,0,*4D
1534629961.74,6004,21.19,74784.5,3.99,-16.93,-17.41,0,*42
1534629962.94,6005,21.19,74790.0,3.99,-16.93,-17.35,0,*40
1534629964.14,6006,21.19,74788.8,3.99,-16.93,-17.35,0,*43
1534629965.36,6007,21.19,74788.3,3.99,-16.93,-17.55,0,*44
1534629966.58,6008,21.19,74790.3,3.99,-16.93,-17.45,0,*4A
1534629967.83,6009,21.19,74788.5,3.99,-17.03,-17.41,0,*47
1534629969.06,6010,21.19,74786.5,3.99,-16.89,-17.25,0,*4E
1534629970.26,6011,21.19,74786.3,3.99,-16.93,-17.35,0,*45
1534629971.48,6012,21.19,74788.3,3.99,-17.07,-17.49,0,*41
1534629972.73,6013,21.19,74792.5,3.99,-17.03,-17.41,0,*4C
1534629973.95,6014,21.19,74788.0,3.99,-16.89,-17.25,0,*4A
1534629975.18,6015,21.19,74790.0,3.99,-16.97,-17.45,0,*42
1534629976.4,6016,21.19,74790.0,3.99,-17.03,-17.49,0,*41
1534629977.62,6017,21.19,74786.5,3.99,-16.89,-17.25,0,*49
1534629978.84,6018,21.19,74790.8,3.97,-16.83,-17.31,0,*47
1534629980.09,6019,21.19,74786.8,3.97,-16.79,-17.25,0,*46
1534629981.29,6020,21.19,74786.0,3.99,-16.93,-17.35,0,*47
1534629982.56,6021,21.19,74790.0,3.97,-17.07,-17.55,0,*42
1534629983.78,6022,21.19,74790.0,3.97,-16.93,-17.31,0,*4F
1534629985.0,6023,21.19,74790.8,3.97,-16.83,-17.31,0,*4F
1534629986.27,6024,21.19,74788.5,3.97,-16.69,-17.17,0,*48
1534629987.52,6025,21.19,74786.3,3.99,-16.65,-17.11,0,*4D
1534629988.8,6026,21.19,74786.3,3.97,-16.69,-17.11,0,*4C
1534629990.07,6027,21.19,74788.5,3.97,-16.69,-17.25,0,*4A
1534629991.35,6028,21.19,74786.0,3.97,-16.69,-17.11,0,*42
1534629992.57,6029,21.19,74786.0,3.99,-16.75,-17.25,0,*47
1534629993.82,6030,21.19,74790.3,4.01,-16.79,-17.25,0,*45
1534629995.04,6031,21.19,74790.3,3.99,-16.75,-17.25,0,*4E
1534629996.27,6032,21.19,74790.8,3.99,-16.75,-17.21,0,*49
1534629997.47,6033,21.19,74790.5,3.99,-16.93,-17.35,0,*45
1534629998.72,6034,21.19,74784.3,3.99,-17.03,-17.41,0,*49
1534629999.99,6035,21.19,74788.3,3.97,-17.11,-17.59,0,*4C
1534630001.21,6036,21.19,74784.5,3.99,-16.89,-17.25,0,*4A
1534630002.49,6037,21.19,74790.5,3.97,-17.07,-17.55,0,*45
1534630003.74,6038,21.19,74790.3,3.99,-17.03,-17.41,0,*45
1534630005.01,6039,21.19,74786.3,3.97,-17.07,-17.45,0,*4A
1534630006.26,6040,21.19,74790.0,3.99,-17.03,-17.41,0,*4A
1534630007.54,6041,21.19,74786.8,3.97,-16.69,-17.17,0,*4B
1534630008.78,6042,21.19,74788.0,3.97,-16.79,-17.25,0,*48
1534630009.99,6043,21.19,74790.8,3.99,-16.93,-17.35,0,*42
1534630011.26,6044,21.19,74788.3,3.97,-17.11,-17.55,0,*46
1534630012.53,6045,21.19,74790.0,3.97,-17.07,-17.45,0,*41
1534630013.78,6046,21.19,74788.5,3.97,-16.83,-17.25,0,*49
1534630015.03,6047,21.19,74790.0,3.97,-16.83,-17.41,0,*4A
1534630016.28,6048,21.19,74788.3,3.97,-16.97,-17.41,0,*40
1534630017.48,6049,21.19,74786.3,3.99,-16.93,-17.35,0,*48
1534630018.73,6050,21.19,74790.3,3.97,-16.97,-17.41,0,*49
1534630019.98,6051,21.19,74788.3,3.99,-16.65,-17.21,0,*4D
1534630021.18,6052,21.19,74790.0,3.99,-16.93,-17.35,0,*42
1534630022.4,6053,21.19,74788.8,3.99,-17.03,-17.49,0,*40
1534630023.65,6054,21.19,74790.8,3.97,-16.97,-17.45,0,*49
1534630024.9,6055,21.19,74790.5,3.97,-16.97,-17.55,0,*49
1534630026.17,6056,21.19,74788.3,3.97,-17.11,-17.45,0,*44
1534630027.42,6057,21.19,74788.0,3.97,-16.93,-17.41,0,*4A
1534630028.67,6058,21.19,74790.5,3.97,-16.79,-17.41,0,*41
1534630029.91,6059,21.19,74790.5,3.97,-16.79,-17.17,0,*43
1534630031.16,6060,21.19,74792.5,3.97,-16.79,-17.17,0,*49
1534630032.41,6061,21.19,74790.3,3.97,-16.93,-17.41,0,*4F
1534630033.65,6062,21.19,74790.5,3.97,-16.93,-17.45,0,*48
1534630034.9,6063,21.19,74788.5,3.97,-16.79,-17.25,0,*4B
1534630036.15,6064,21.19,74788.5,3.97,-16.51,-16.97,0,*4E
1534630037.37,6065,21.19,74790.8,3.99,-16.75,-17.21,0,*4B
1534630038.62,6066,21.19,74792.3,3.97,-16.83,-17.41,0,*49
1534630039.82,6067,21.19,74788.3,3.99,-16.93,-17.35,0,*44
1534630041.07,6068,21.19,74788.5,3.97,-16.83,-17.25,0,*45
1534630042.27,6069,21.19,74790.8,3.99,-16.93,-17.35,0,*4A
1534630043.49,6070,21.19,74788.5,3.97,-16.93,-17.31,0,*48
1534630044.73,6071,21.19,74790.8,3.97,-16.93,-17.41,0,*4E
1534630045.95,6072,21.19,74786.3,3.97,-16.83,-17.31,0,*4B
1534630047.17,6073,21.19,74790.8,3.97,-16.79,-17.31,0,*4F
1534630048.42,6074,21.19,74788.3,3.97,-16.97,-17.41,0,*4F
1534630049.67,6075,21.19,74788.0,3.97,-16.97,-17.45,0,*4A
1534630050.92,6076,21.19,74788.8,3.97,-16.97,-17.45,0,*49
1534630052.16,6077,21.19,74788.8,3.97,-16.93,-17.41,0,*48
1534630053.41,6078,21.19,74792.8,3.97,-16.83,-17.25,0,*44
1534630054.66,6079,21.19,74788.0,3.97,-16.93,-17.41,0,*46
1534630055.91,6080,21.19,74792.0,3.97,-16.97,-17.41,0,*44
1534630057.13,6081,21.19,74790.8,3.97,-16.83,-17.31,0,*47
1534630058.37,6082,21.19,74790.3,3.97,-16.83,-17.25,0,*41
1534630059.62,6083,21.19,74790.3,3.97,-16.83,-17.17,0,*41
1534630060.88,6084,21.19,74792.0,3.97,-16.55,-17.07,0,*4C
1534630062.13,6085,21.19,74790.0,3.97,-16.55,-17.11,0,*4A
1534630063.35,6086,21.19,74788.8,3.97,-16.93,-17.31,0,*41
1534630064.57,6087,21.19,74788.8,3.99,-16.93,-17.41,0,*49
1534630065.85,6088,21.19,74794.3,3.97,-16.65,-17.11,0,*44
1534630067.1,6089,21.19,74790.0,3.99,-16.69,-17.11,0,*47
1534630068.33,6090,21.19,74788.0,3.99,-16.75,-17.21,0,*41
1534630069.55,6091,21.19,74790.8,3.99,-16.75,-17.21,0,*40
1534630070.8,6092,21.19,74792.3,3.97,-16.93,-17.41,0,*43
1534630072.05,6093,21.19,74788.5,3.97,-16.97,-17.41,0,*46
1534630073.3,6094,21.19,74790.5,3.97,-16.97,-17.45,0,*45
1534630074.55,6095,21.19,74790.5,3.99,-17.03,-17.41,0,*42
1534630075.77,6096,21.19,74788.3,3.97,-16.83,-17.31,0,*41
1534630076.99,6097,21.19,74790.3,3.99,-16.83,-17.25,0,*4B
1534630078.24,6098,21.19,74790.8,3.97,-16.97,-17.45,0,*49
1534630079.46,6099,21.19,74788.8,3.99,-16.93,-17.41,0,*46
1534630080.71,6100,21.19,74790.0,3.97,-16.97,-17.45,0,*49
1534630081.98,6101,21.19,74792.5,3.97,-17.07,-17.55,0,*41
1534630083.23,6102,21.19,74790.5,3.99,-17.03,-17.41,0,*4D
1534630084.48,6103,21.19,74788.5,3.97,-16.97,-17.55,0,*4B
1534630085.75,6104,21.19,74788.0,3.97,-17.07,-17.55,0,*44
1534630087.0,6105,21.19,74790.0,3.97,-16.97,-17.45,0,*4C
1534630088.27,6106,21.19,74790.0,3.97,-16.69,-17.17,0,*49
1534630089.52,6107,21.19,74790.3,3.97,-16.51,-16.93,0,*4E
1534630090.73,6108,21.19,74788.5,3.97,-16.97,-17.31,0,*42
1534630091.98,6109,21.19,74788.8,3.97,-16.97,-17.41,0,*44
1534630093.2,6110,21.19,74788.0,3.97,-16.93,-17.31,0,*4F
1534630094.45,6111,21.19,74790.5,3.97,-16.79,-17.17,0,*4E
1534630095.67,6112,21.19,74794.0,3.97,-16.83,-17.31,0,*4C
1534630096.92,6113,21.19,74790.5,3.97,-16.97,-17.41,0,*4F
1534630098.16,6114,21.19,74790.5,3.97,-16.93,-17.41,0,*4C
1534630099.38,6115,21.19,74788.5,3.97,-16.97,-17.31,0,*4E
1534630100.63,6116,21.19,74792.0,3.97,-16.93,-17.41,0,*4E
1534630101.9,6117,21.19,74788.5,3.97,-16.69,-17.17,0,*49
1534630103.14,6118,21.19,74790.5,3.97,-16.51,-16.97,0,*44
1534630104.4,6119,21.19,74788.5,3.97,-16.55,-17.11,0,*4E
1534630105.62,6120,21.19,74790.0,3.99,-16.79,-17.21,0,*47
1534630106.89,6121,21.19,74790.5,3.97,-16.69,-17.17,0,*4C
1534630108.18,6122,21.19,74792.0,3.97,-16.69,-17.07,0,*4E
1534630109.4,6123,21.19,74790.8,3.99,-16.75,-17.21,0,*48
1534630110.63,6124,21.19,74794.3,3.99,-16.75,-17.11,0,*4C